Location: Greenwich
(51.4790°N, 0.0090°E)
Time: 19:01:45
(UTC+01:00)

Tiros 1 - Pass Details

Date: 01 May 2024
Orbit: 624 x 657 km, 48.4° (Epoch: 22 May)

Event Time Altitude Azimuth Distance (km) Brightness Sun altitude
Rises 21:24:10 0° 231° (SW) 2,956 10.7 -8.7°
Reaches altitude 10° 21:26:38 10° 223° (SW) 2,043 9.8 -9.0°
Maximum altitude 21:30:57 37° 157° (SSE) 1,006 7.7 -9.5°
Drops below altitude 10° 21:35:14 10° 90° (E) 2,028 9.3 -10.0°
Enters shadow 21:36:39 - 85° (E) 2,550 9.8 -10.2°
